Date String (YYYY-MM-DD hh:mm:ss) UTC,Instrument flags,Ambient pressure (hPa),Sample flow (lpm),Bypass flow (lpm),Sample temperature (°C),Ambient temperature (°C),ASC tube jacket temperature (°C),LED temperature (°C),Box temperature (°C),Sample RH (%),Span deviation,Mass concentration (μg/m³),Mass concentration (μg/m³),Mass concentration (μg/m³)
DateTimeUTC,F1_M11,P_M11,Q1_M11,Q2_M11,T1_M11,T2_M11,T3_M11,T4_M11,T5_M11,U1_M11,ZSPAN_M11,X0_M11,X2_M11,X1_M11
2021-12-29 03:00:00,,0811.8,4.99,0.00,22.4,21.6,00.0,31.4,24.1,06.1,0000.0,0014.16,0003.19,0001.20
2021-12-29 03:01:00,,0811.9,5.00,0.00,22.4,21.6,00.0,31.4,24.1,06.1,0000.0,0013.99,0003.22,0001.19
2021-12-29 03:02:00,,0811.9,5.01,0.00,22.4,21.6,00.0,31.4,24.0,06.2,0000.0,0013.55,0003.26,0001.19
2021-12-29 03:03:00,,0811.9,4.99,0.00,22.4,22.0,00.0,31.5,24.2,06.2,0000.0,0012.89,0003.28,0001.21
2021-12-29 03:04:00,,0811.9,5.01,0.00,22.6,22.8,00.0,31.5,24.4,06.2,0000.0,0014.38,0003.31,0001.22
2021-12-29 03:05:00,,0811.9,5.00,0.00,22.7,23.2,00.0,31.5,24.6,06.2,0000.0,0015.03,0003.28,0001.22
2021-12-29 03:06:00,,0811.9,4.99,0.00,22.7,23.0,00.0,31.5,24.6,06.2,0000.0,0014.84,0003.30,0001.23
2021-12-29 03:07:00,,0811.8,5.00,0.00,22.7,22.8,00.0,31.6,24.6,06.2,0000.0,0014.62,0003.30,0001.23
2021-12-29 03:08:00,,0811.8,5.01,0.00,22.7,22.6,00.0,31.6,24.5,06.1,0000.0,0013.81,0003.28,0001.22
2021-12-29 03:09:00,,0811.8,4.99,0.00,22.7,22.5,00.0,31.6,24.5,06.1,0000.0,0013.95,0003.23,0001.20
2021-12-29 03:10:00,,0811.7,4.99,0.00,22.7,22.4,00.0,31.6,24.4,06.1,0000.0,0013.19,0003.23,0001.19
2021-12-29 03:11:00,,0811.7,5.01,0.00,22.7,22.2,00.0,31.6,24.4,06.1,0000.0,0013.04,0003.21,0001.19
2021-12-29 03:12:00,,0811.7,5.00,0.00,22.7,22.2,00.0,31.6,24.3,06.1,0000.0,0013.37,0003.22,0001.17
2021-12-29 03:13:00,,0811.7,4.99,0.00,22.6,22.1,00.0,31.6,24.3,06.1,0000.0,0014.12,0003.24,0001.16
2021-12-29 03:14:00,,0811.7,5.00,0.00,22.6,22.0,00.0,31.6,24.3,06.1,0000.0,0014.15,0003.23,0001.15
2021-12-29 03:15:00,,0811.7,5.01,0.00,22.6,22.0,00.0,31.6,24.3,06.1,0000.0,0013.03,0003.21,0001.13
2021-12-29 03:16:00,,0811.6,4.98,0.00,22.6,21.9,00.0,31.6,24.2,06.1,0000.0,0012.51,0003.19,0001.13
2021-12-29 03:17:00,,0811.7,5.00,0.00,22.6,21.9,00.0,31.6,24.2,06.1,0000.0,0013.02,0003.17,0001.11
2021-12-29 03:18:00,,0811.6,5.00,0.00,22.6,21.8,00.0,31.6,24.2,06.1,0000.0,0014.24,0003.20,0001.11
2021-12-29 03:19:00,,0811.6,5.01,0.00,22.5,21.8,00.0,31.6,24.1,06.1,0000.0,0014.13,0003.20,0001.12
2021-12-29 03:20:00,,0811.6,5.00,0.00,22.5,21.7,00.0,31.5,24.1,06.1,0000.0,0013.87,0003.22,0001.13
2021-12-29 03:21:00,,0811.6,5.01,0.00,22.5,21.7,00.0,31.5,24.1,06.1,0000.0,0013.77,0003.21,0001.13
2021-12-29 03:22:00,,0811.6,4.98,0.00,22.5,21.7,00.0,31.5,24.1,06.1,0000.0,0014.64,0003.20,0001.13
2021-12-29 03:23:00,,0811.6,5.01,0.00,22.4,21.7,00.0,31.5,24.0,06.1,0000.0,0015.04,0003.18,0001.13
2021-12-29 03:24:00,,0811.6,5.00,0.00,22.4,21.6,00.0,31.5,24.0,06.1,0000.0,0014.48,0003.11,0001.13
2021-12-29 03:25:00,,0811.6,5.00,0.00,22.4,21.6,00.0,31.5,24.0,06.1,0000.0,0014.45,0003.11,0001.13
2021-12-29 03:26:00,,0811.5,5.00,0.00,22.4,21.6,00.0,31.5,24.0,06.2,0000.0,0014.54,0003.16,0001.12
2021-12-29 03:27:00,,0811.5,4.99,0.00,22.4,22.1,00.0,31.5,24.2,06.1,0000.0,0015.11,0003.19,0001.13
2021-12-29 03:28:00,,0811.5,5.01,0.00,22.6,22.8,00.0,31.5,24.4,06.1,0000.0,0014.79,0003.19,0001.13
2021-12-29 03:29:00,,0811.5,5.00,0.00,22.7,23.2,00.0,31.6,24.6,06.0,0000.0,0014.41,0003.22,0001.14
2021-12-29 03:30:00,,0811.5,5.00,0.00,22.7,23.0,00.0,31.6,24.6,06.0,0000.0,0013.72,0003.23,0001.14
2021-12-29 03:31:00,,0811.4,4.99,0.00,22.7,22.8,00.0,31.6,24.5,06.0,0000.0,0013.24,0003.27,0001.14
2021-12-29 03:32:00,,0811.4,5.00,0.00,22.7,22.6,00.0,31.6,24.4,06.0,0000.0,0013.70,0003.29,0001.14
2021-12-29 03:33:00,,0811.4,5.00,0.00,22.7,22.4,00.0,31.6,24.4,06.0,0000.0,0013.79,0003.30,0001.13
2021-12-29 03:34:00,,0811.3,5.00,0.00,22.7,22.3,00.0,31.6,24.4,06.0,0000.0,0012.90,0003.31,0001.14
2021-12-29 03:35:00,,0811.4,4.99,0.00,22.7,22.2,00.0,31.6,24.3,06.0,0000.0,0012.77,0003.33,0001.14
2021-12-29 03:36:00,,0811.4,5.01,0.00,22.6,22.1,00.0,31.6,24.3,06.0,0000.0,0013.10,0003.33,0001.13
2021-12-29 03:37:00,,0811.4,4.99,0.00,22.6,22.0,00.0,31.6,24.3,06.0,0000.0,0012.57,0003.27,0001.13
2021-12-29 03:38:00,,0811.4,5.02,0.00,22.6,21.9,00.0,31.6,24.2,06.0,0000.0,0011.37,0003.21,0001.11
2021-12-29 03:39:00,,0811.4,4.99,0.00,22.6,21.9,00.0,31.6,24.2,06.1,0000.0,0011.23,0003.21,0001.10
2021-12-29 03:40:00,,0811.4,5.02,0.00,22.5,21.8,00.0,31.6,24.2,06.1,0000.0,0011.47,0003.16,0001.08
2021-12-29 03:41:00,,0811.4,5.00,0.00,22.5,21.8,00.0,31.6,24.1,06.1,0000.0,0012.17,0003.13,0001.08
2021-12-29 03:42:00,,0811.4,4.99,0.00,22.5,21.7,00.0,31.5,24.1,06.1,0000.0,0012.65,0003.13,0001.08
2021-12-29 03:43:00,,0811.4,5.00,0.00,22.5,21.7,00.0,31.5,24.1,06.1,0000.0,0012.22,0003.10,0001.07
2021-12-29 03:44:00,,0811.4,5.01,0.00,22.4,21.6,00.0,31.5,24.1,06.1,0000.0,0012.15,0003.11,0001.05
2021-12-29 03:45:00,,0811.3,4.99,0.00,22.4,21.6,00.0,31.5,24.1,06.1,0000.0,0012.40,0003.17,0001.04
2021-12-29 03:46:00,,0811.3,5.00,0.00,22.4,21.6,00.0,31.5,24.0,06.1,0000.0,0012.19,0003.16,0001.05
2021-12-29 03:47:00,,0811.3,5.01,0.00,22.4,21.6,00.0,31.5,24.0,06.1,0000.0,0011.71,0003.13,0001.06
2021-12-29 03:48:00,,0811.3,4.98,0.00,22.4,21.5,00.0,31.5,24.0,06.1,0000.0,0011.79,0003.15,0001.07
2021-12-29 03:49:00,,0811.4,5.01,0.00,22.4,21.8,00.0,31.5,24.1,06.1,0000.0,0012.58,0003.20,0001.10
2021-12-29 03:50:00,,0811.4,4.99,0.00,22.5,22.6,00.0,31.5,24.3,06.1,0000.0,0014.02,0003.28,0001.11
2021-12-29 03:51:00,,0811.4,5.01,0.00,22.6,23.2,00.0,31.5,24.5,06.0,0000.0,0014.79,0003.33,0001.10
2021-12-29 03:52:00,,0811.3,5.00,0.00,22.7,23.1,00.0,31.6,24.6,06.0,0000.0,0014.29,0003.38,0001.10
2021-12-29 03:53:00,,0811.3,4.98,0.00,22.7,22.9,00.0,31.6,24.6,06.0,0000.0,0014.25,0003.44,0001.12
2021-12-29 03:54:00,,0811.2,5.01,0.00,22.7,22.7,00.0,31.6,24.5,06.0,0000.0,0014.57,0003.49,0001.14
2021-12-29 03:55:00,,0811.2,5.00,0.00,22.7,22.5,00.0,31.6,24.4,06.0,0000.0,0014.31,0003.48,0001.16
2021-12-29 03:56:00,,0811.3,4.99,0.00,22.7,22.3,00.0,31.6,24.3,06.0,0000.0,0014.20,0003.45,0001.16
2021-12-29 03:57:00,,0811.3,5.02,0.00,22.6,22.2,00.0,31.6,24.3,06.0,0000.0,0014.52,0003.51,0001.17
2021-12-29 03:58:00,,0811.3,5.00,0.00,22.6,22.1,00.0,31.6,24.2,06.0,0000.0,0015.20,0003.60,0001.17
2021-12-29 03:59:00,,0811.2,5.00,0.00,22.6,22.0,00.0,31.6,24.2,06.0,0000.0,0015.58,0003.62,0001.17
